When you browse on this site, cookies collect data to enhance your experience and personalize the content and advertising you see.
Visit our Privacy Policy to learn more. By continuing to use the site, you agree to this use of cookies and data.
  • In Österreich
  • Länderverzeichnis
  • Für 7 Tage
  • Wassertemperatur
  • Wetterkarte
  • News
  • Widgets
  • user-avatar
    Anmelden

    Stündliche Wetter Konec

    Heute, 26 Januar, Sonntag

    Zeit Temperatur Niederschläge Wind Luftdruck Luftfeuchtigkeit
    00:00 -2°C° 0 mm 3 m/S 740 mmHg 81%
    01:00 -2°C° 0 mm 3 m/S 740 mmHg 82%
    02:00 -4°C° 0 mm 3 m/S 741 mmHg 83%
    03:00 -4°C° 0 mm 3 m/S 741 mmHg 84%
    04:00 -4°C° 0 mm 3 m/S 742 mmHg 85%
    05:00 -4°C° 0 mm 3 m/S 742 mmHg 86%
    06:00 -4°C° 0 mm 3 m/S 742 mmHg 87%
    07:00 -3°C° 0 mm 2 m/S 742 mmHg 87%
    08:00 -4°C° 0 mm 2 m/S 742 mmHg 91%
    09:00 -4°C° 0 mm 3 m/S 742 mmHg 87%
    10:00 -2°C° 0 mm 4 m/S 742 mmHg 84%
    11:00 -1°C° 0 mm 4 m/S 742 mmHg 80%
    12:00 -1°C° 0 mm 5 m/S 742 mmHg 82%
    13:00 -1°C° 0 mm 5 m/S 742 mmHg 85%
    14:00 -2°C° 0 mm 6 m/S 742 mmHg 84%
    15:00 -2°C° 0 mm 6 m/S 741 mmHg 86%
    16:00 -1°C° 0 mm 6 m/S 741 mmHg 88%
    17:00 -1°C° 0 mm 6 m/S 741 mmHg 89%
    18:00 -1°C° 0 mm 6 m/S 741 mmHg 89%
    19:00 -1°C° 0 mm 6 m/S 741 mmHg 89%
    20:00 -1°C° 0 mm 6 m/S 741 mmHg 89%
    21:00 0°C° 0 mm 5 m/S 741 mmHg 89%
    22:00 0°C° 0 mm 5 m/S 741 mmHg 89%
    23:00 0°C° 0 mm 4 m/S 741 mmHg 89%

    Morgen, 27 Januar, Montag

    Zeit Temperatur Niederschläge Wind Luftdruck Luftfeuchtigkeit
    00:00 0°C° 0 mm 4 m/S 741 mmHg 89%
    01:00 0°C° 0 mm 4 m/S 741 mmHg 90%
    02:00 0°C° 0 mm 4 m/S 742 mmHg 91%
    03:00 +1°C° 0 mm 3 m/S 742 mmHg 92%
    04:00 0°C° 0 mm 3 m/S 741 mmHg 92%
    05:00 0°C° 0 mm 3 m/S 741 mmHg 93%
    06:00 0°C° 0 mm 3 m/S 741 mmHg 94%
    07:00 +1°C° 0 mm 2 m/S 741 mmHg 96%
    08:00 +1°C° 0 mm 2 m/S 741 mmHg 97%
    09:00 +1°C° 0 mm 2 m/S 742 mmHg 97%
    10:00 +1°C° 0 mm 2 m/S 742 mmHg 97%
    11:00 +1°C° 0 mm 2 m/S 742 mmHg 97%
    12:00 +1°C° 0.1 mm 2 m/S 742 mmHg 97%
    13:00 +1°C° 0.1 mm 2 m/S 742 mmHg 97%
    14:00 +1°C° 0.1 mm 2 m/S 741 mmHg 97%
    15:00 +1°C° 0.1 mm 2 m/S 741 mmHg 97%
    16:00 +1°C° 0.1 mm 1 m/S 741 mmHg 98%
    17:00 +1°C° 0.1 mm 1 m/S 741 mmHg 98%
    18:00 +1°C° 0.5 mm 1 m/S 741 mmHg 98%
    19:00 -1°C° 0.5 mm 2 m/S 741 mmHg 98%
    20:00 -1°C° 0.5 mm 2 m/S 740 mmHg 98%
    21:00 -1°C° 0.3 mm 2 m/S 740 mmHg 98%
    22:00 -1°C° 0.3 mm 2 m/S 740 mmHg 98%
    23:00 -1°C° 0.3 mm 2 m/S 740 mmHg 97%

    übermorgen, 28 Januar, Dienstag

    Zeit Temperatur Niederschläge Wind Luftdruck Luftfeuchtigkeit
    00:00 -1°C° 0.2 mm 2 m/S 740 mmHg 97%
    01:00 -1°C° 0.2 mm 2 m/S 740 mmHg 98%
    02:00 +1°C° 0.2 mm 1 m/S 739 mmHg 98%
    03:00 +1°C° 0.1 mm 1 m/S 739 mmHg 97%
    04:00 +1°C° 0.1 mm 1 m/S 739 mmHg 97%
    05:00 -2°C° 0.1 mm 2 m/S 739 mmHg 97%
    06:00 -2°C° 0.1 mm 2 m/S 739 mmHg 97%
    07:00 -2°C° 0.1 mm 2 m/S 739 mmHg 97%
    08:00 -2°C° 0.1 mm 2 m/S 739 mmHg 97%
    09:00 -2°C° 0 mm 2 m/S 739 mmHg 95%
    10:00 -1°C° 0 mm 2 m/S 739 mmHg 93%
    11:00 -1°C° 0 mm 2 m/S 739 mmHg 91%
    12:00 -1°C° 0 mm 2 m/S 739 mmHg 91%
    13:00 +1°C° 0 mm 2 m/S 739 mmHg 91%
    14:00 +1°C° 0 mm 2 m/S 738 mmHg 90%
    15:00 +1°C° 0 mm 2 m/S 738 mmHg 92%
    16:00 -1°C° 0 mm 2 m/S 738 mmHg 95%
    17:00 -1°C° 0 mm 2 m/S 738 mmHg 97%
    18:00 -1°C° 0 mm 2 m/S 738 mmHg 97%
    19:00 -1°C° 0 mm 2 m/S 738 mmHg 97%
    20:00 -1°C° 0 mm 2 m/S 738 mmHg 97%
    21:00 -1°C° 0 mm 2 m/S 738 mmHg 97%
    22:00 -1°C° 0 mm 2 m/S 738 mmHg 97%
    23:00 -1°C° 0 mm 3 m/S 737 mmHg 96%

    29 Januar, Mittwoch

    Zeit Temperatur Niederschläge Wind Luftdruck Luftfeuchtigkeit
    00:00 -1°C° 0 mm 3 m/S 737 mmHg 95%
    01:00 -2°C° 0 mm 3 m/S 737 mmHg 95%
    02:00 -2°C° 0 mm 3 m/S 737 mmHg 94%
    03:00 -2°C° 0 mm 3 m/S 736 mmHg 94%
    04:00 -2°C° 0 mm 3 m/S 736 mmHg 94%
    05:00 -4°C° 0 mm 3 m/S 735 mmHg 95%
    06:00 -2°C° 0 mm 3 m/S 735 mmHg 95%
    07:00 -3°C° 0 mm 4 m/S 735 mmHg 95%
    08:00 -3°C° 0 mm 4 m/S 735 mmHg 96%
    09:00 -3°C° 0 mm 4 m/S 734 mmHg 95%
    10:00 -2°C° 0 mm 4 m/S 734 mmHg 95%
    11:00 -2°C° 0 mm 4 m/S 734 mmHg 94%
    12:00 -1°C° 0 mm 4 m/S 734 mmHg 94%
    13:00 -1°C° 0 mm 4 m/S 733 mmHg 94%
    14:00 0°C° 0 mm 4 m/S 733 mmHg 94%
    15:00 0°C° 0.1 mm 4 m/S 733 mmHg 95%
    16:00 0°C° 0.1 mm 4 m/S 732 mmHg 95%
    17:00 0°C° 0.1 mm 4 m/S 732 mmHg 95%
    18:00 0°C° 0.1 mm 4 m/S 731 mmHg 96%
    19:00 0°C° 0.1 mm 4 m/S 731 mmHg 96%
    20:00 0°C° 0.1 mm 4 m/S 731 mmHg 96%
    21:00 0°C° 0.1 mm 4 m/S 730 mmHg 96%
    22:00 0°C° 0.1 mm 4 m/S 730 mmHg 96%
    23:00 0°C° 0.1 mm 4 m/S 729 mmHg 96%

    30 Januar, Donnerstag

    Zeit Temperatur Niederschläge Wind Luftdruck Luftfeuchtigkeit
    00:00 0°C° 0.2 mm 4 m/S 729 mmHg 96%
    01:00 0°C° 0.2 mm 4 m/S 729 mmHg 96%
    02:00 +1°C° 0.2 mm 3 m/S 728 mmHg 96%
    03:00 +1°C° 0.1 mm 3 m/S 728 mmHg 96%
    04:00 +1°C° 0.1 mm 3 m/S 727 mmHg 97%
    05:00 +2°C° 0.1 mm 3 m/S 727 mmHg 97%
    06:00 +2°C° 0.2 mm 3 m/S 727 mmHg 97%
    07:00 +2°C° 0.2 mm 3 m/S 727 mmHg 97%
    08:00 +2°C° 0.2 mm 3 m/S 727 mmHg 97%
    09:00 +2°C° 0.2 mm 3 m/S 727 mmHg 97%
    10:00 +1°C° 0.2 mm 4 m/S 727 mmHg 97%
    11:00 +1°C° 0.2 mm 4 m/S 727 mmHg 96%
    12:00 0°C° 0.2 mm 4 m/S 727 mmHg 96%
    13:00 0°C° 0.2 mm 4 m/S 727 mmHg 96%
    14:00 0°C° 0.2 mm 4 m/S 727 mmHg 96%
    15:00 0°C° 0.3 mm 3 m/S 727 mmHg 96%
    16:00 0°C° 0.3 mm 3 m/S 728 mmHg 96%
    17:00 -1°C° 0.3 mm 3 m/S 728 mmHg 96%
    18:00 -1°C° 0.2 mm 3 m/S 729 mmHg 96%
    19:00 -1°C° 0.2 mm 3 m/S 729 mmHg 96%
    20:00 -1°C° 0.2 mm 3 m/S 729 mmHg 96%
    21:00 -1°C° 0.1 mm 3 m/S 730 mmHg 96%
    22:00 -1°C° 0.1 mm 2 m/S 730 mmHg 96%
    23:00 -1°C° 0.1 mm 2 m/S 731 mmHg 96%

    31 Januar, Freitag

    Zeit Temperatur Niederschläge Wind Luftdruck Luftfeuchtigkeit
    00:00 -2°C° 0.2 mm 2 m/S 731 mmHg 96%
    01:00 -2°C° 0.2 mm 2 m/S 731 mmHg 97%
    02:00 -2°C° 0.2 mm 2 m/S 731 mmHg 97%
    03:00 -2°C° 0.2 mm 2 m/S 732 mmHg 97%
    04:00 -2°C° 0.2 mm 2 m/S 732 mmHg 97%
    05:00 -2°C° 0.2 mm 2 m/S 732 mmHg 97%
    06:00 -2°C° 0.1 mm 2 m/S 733 mmHg 97%
    07:00 -2°C° 0.1 mm 2 m/S 733 mmHg 97%
    08:00 0°C° 0.1 mm 1 m/S 734 mmHg 97%
    09:00 -2°C° 0.1 mm 2 m/S 734 mmHg 96%
    10:00 -1°C° 0.1 mm 2 m/S 734 mmHg 94%
    11:00 -1°C° 0.1 mm 2 m/S 735 mmHg 93%
    12:00 -1°C° 0.1 mm 2 m/S 735 mmHg 93%
    13:00 +1°C° 0.1 mm 2 m/S 735 mmHg 92%
    14:00 +1°C° 0.1 mm 2 m/S 735 mmHg 91%
    15:00 -1°C° 0 mm 2 m/S 735 mmHg 92%
    16:00 +1°C° 0 mm 1 m/S 735 mmHg 93%
    17:00 +1°C° 0 mm 1 m/S 736 mmHg 93%
    18:00 +1°C° 0 mm 1 m/S 736 mmHg 93%
    19:00 +1°C° 0 mm 1 m/S 736 mmHg 92%
    20:00 +1°C° 0 mm 1 m/S 737 mmHg 91%
    21:00 0°C° 0 mm 1 m/S 737 mmHg 91%
    22:00 0°C° 0 mm 1 m/S 737 mmHg 91%
    23:00 -1°C° 0 mm 1 m/S 737 mmHg 91%
    Mehr zeigen